This is the latest recevied weather packets stored in our database for station/object PA3GJX-13. If no packets are shown the sender has not sent any weather packets the latest 10 day(s).
| Time | Temp. | Humidity | Pressure | Rain* | Wind** | Luminosity | Snow |
|---|---|---|---|---|---|---|---|
| 1777638938 | 28.33° C | 23% | 1037.6 hPa | - | - | - | - |
| 1777637738 | 28.33° C | 23% | 1037.8 hPa | - | - | - | - |
| 1777636538 | 27.78° C | 24% | 1038.1 hPa | - | - | - | - |
| 1777635338 | 27.22° C | 24% | 1038.3 hPa | - | - | - | - |
| 1777634138 | 26.67° C | 25% | 1038.5 hPa | - | - | - | - |
| 1777632938 | 26.11° C | 25% | 1038.7 hPa | - | - | - | - |
| 1777631738 | 25.56° C | 25% | 1038.9 hPa | - | - | - | - |
| 1777630538 | 24.44° C | 25% | 1039.2 hPa | - | - | - | - |
| 1777629338 | 23.89° C | 25% | 1039.3 hPa | - | - | - | - |
| 1777628138 | 23.33° C | 26% | 1039.5 hPa | - | - | - | - |
| 1777626938 | 22.78° C | 26% | 1039.7 hPa | - | - | - | - |
| 1777625738 | 22.22° C | 26% | 1039.8 hPa | - | - | - | - |
| 1777624538 | 21.67° C | 27% | 1039.9 hPa | - | - | - | - |
| 1777623338 | 21.11° C | 28% | 1040.1 hPa | - | - | - | - |
| 1777622138 | 20.56° C | 29% | 1040.4 hPa | - | - | - | - |
| 1777620938 | 20° C | 30% | 1040.3 hPa | - | - | - | - |
| 1777619738 | 19.44° C | 30% | 1040.5 hPa | - | - | - | - |
| 1777618537 | 18.89° C | 31% | 1040.6 hPa | - | - | - | - |
| 1777617338 | 18.33° C | 31% | 1040.7 hPa | - | - | - | - |
| 1777616137 | 17.78° C | 32% | 1040.6 hPa | - | - | - | - |
| 1777614937 | 17.78° C | 32% | 1040.8 hPa | - | - | - | - |
| 1777613737 | 17.78° C | 32% | 1040.7 hPa | - | - | - | - |
| 1777612537 | 18.33° C | 32% | 1040.8 hPa | - | - | - | - |
| 1777611337 | 18.33° C | 32% | 1040.8 hPa | - | - | - | - |
| 1777610137 | 18.33° C | 32% | 1040.8 hPa | - | - | - | - |
* Rain since midnight (hover to see other rain measurements)
** Current wind speed in m/s (hover to see current wind gust speed)